Year,Month,Day,Hour,Minute,Value (Times are PST for temperature in C)
2010,04,26,03,17,9.80
2010,04,26,03,18,9.80
2010,04,26,03,19,9.80
2010,04,26,03,20,9.80
2010,04,26,03,21,9.80
2010,04,26,03,22,9.90
2010,04,26,03,23,9.90
2010,04,26,03,24,10.00
2010,04,26,03,25,10.10
2010,04,26,03,26,10.10
2010,04,26,03,27,10.10
2010,04,26,03,28,10.20
2010,04,26,03,29,10.20
2010,04,26,03,30,10.20
2010,04,26,03,31,10.20
2010,04,26,03,32,10.20
2010,04,26,03,33,10.20
2010,04,26,03,34,10.20
2010,04,26,03,35,10.20
2010,04,26,03,36,10.30
2010,04,26,03,37,10.20
2010,04,26,03,38,10.20
2010,04,26,03,39,10.20
2010,04,26,03,40,10.20
2010,04,26,03,41,10.20
2010,04,26,03,42,10.20
2010,04,26,03,43,10.20
2010,04,26,03,44,10.20
2010,04,26,03,45,10.20
2010,04,26,03,46,10.20
2010,04,26,03,47,10.20
2010,04,26,03,48,10.20
2010,04,26,03,49,10.20
2010,04,26,03,50,10.20
2010,04,26,03,51,10.30
2010,04,26,03,52,10.30
2010,04,26,03,53,10.30
2010,04,26,03,54,10.30
2010,04,26,03,55,10.30
2010,04,26,03,56,10.30
2010,04,26,03,57,10.30
2010,04,26,03,58,10.30
2010,04,26,03,59,10.30
2010,04,26,04,00,10.30
2010,04,26,04,01,10.30
2010,04,26,04,02,10.30
2010,04,26,04,03,10.30
2010,04,26,04,04,10.30
2010,04,26,04,05,10.20
2010,04,26,04,06,10.20
2010,04,26,04,07,10.20
2010,04,26,04,08,10.20
2010,04,26,04,09,10.10
2010,04,26,04,10,10.10
2010,04,26,04,11,10.10
2010,04,26,04,12,10.10
2010,04,26,04,13,10.10
2010,04,26,04,14,10.00
2010,04,26,04,15,10.00
2010,04,26,04,16,9.90
2010,04,26,04,17,9.90
2010,04,26,04,18,9.90
2010,04,26,04,19,9.90
2010,04,26,04,20,9.90
2010,04,26,04,21,9.90
2010,04,26,04,22,9.90
2010,04,26,04,23,9.90
2010,04,26,04,24,9.90
2010,04,26,04,25,9.90
2010,04,26,04,26,9.90
2010,04,26,04,27,9.90
2010,04,26,04,28,9.90
2010,04,26,04,29,9.90
2010,04,26,04,30,9.90
2010,04,26,04,31,9.90
2010,04,26,04,32,9.90
2010,04,26,04,33,9.90
2010,04,26,04,34,9.90
2010,04,26,04,35,9.90
2010,04,26,04,36,9.90
2010,04,26,04,37,9.80
2010,04,26,04,38,9.80
2010,04,26,04,39,9.80
2010,04,26,04,40,9.80
2010,04,26,04,41,9.80
2010,04,26,04,42,9.80
2010,04,26,04,43,9.80
2010,04,26,04,44,9.70
2010,04,26,04,45,9.70
2010,04,26,04,46,9.70
2010,04,26,04,47,9.70
2010,04,26,04,48,9.60
2010,04,26,04,49,9.60
2010,04,26,04,50,9.60
2010,04,26,04,51,9.60
2010,04,26,04,52,9.60
2010,04,26,04,53,9.60
2010,04,26,04,54,9.60
2010,04,26,04,55,9.60
2010,04,26,04,56,9.50
2010,04,26,04,57,9.50
2010,04,26,04,58,9.50
2010,04,26,04,59,9.40
2010,04,26,05,00,9.40
2010,04,26,05,01,9.40
2010,04,26,05,02,9.40
2010,04,26,05,03,9.40
2010,04,26,05,04,9.40
2010,04,26,05,05,9.40
2010,04,26,05,06,9.40
2010,04,26,05,07,9.40
2010,04,26,05,08,9.40
2010,04,26,05,09,9.40
2010,04,26,05,10,9.40
2010,04,26,05,11,9.40
2010,04,26,05,12,9.40
2010,04,26,05,13,9.30
2010,04,26,05,14,9.30
2010,04,26,05,15,9.30
2010,04,26,05,16,9.30
2010,04,26,05,17,9.30
2010,04,26,05,18,9.30
2010,04,26,05,19,9.30
2010,04,26,05,20,9.30
2010,04,26,05,21,9.30
2010,04,26,05,22,9.30
2010,04,26,05,23,9.30
2010,04,26,05,24,9.40
2010,04,26,05,25,9.40
2010,04,26,05,26,9.50
2010,04,26,05,27,9.50
2010,04,26,05,28,9.50
2010,04,26,05,29,9.50
2010,04,26,05,30,9.50
2010,04,26,05,31,9.60
2010,04,26,05,32,9.60
2010,04,26,05,33,9.60
2010,04,26,05,34,9.60
2010,04,26,05,35,9.60
2010,04,26,05,36,9.60
2010,04,26,05,37,9.60
2010,04,26,05,38,9.60
2010,04,26,05,39,9.60
2010,04,26,05,40,9.60
2010,04,26,05,41,9.60
2010,04,26,05,42,9.60
2010,04,26,05,43,9.60
2010,04,26,05,44,9.60
2010,04,26,05,45,9.60
2010,04,26,05,46,9.60
2010,04,26,05,47,9.60
2010,04,26,05,48,9.60
2010,04,26,05,49,9.60
2010,04,26,05,50,9.50
2010,04,26,05,51,9.50
2010,04,26,05,52,9.50
2010,04,26,05,53,9.50
2010,04,26,05,54,9.50
2010,04,26,05,55,9.50
2010,04,26,05,56,9.60
2010,04,26,05,57,9.60
2010,04,26,05,58,9.70
2010,04,26,05,59,9.70
2010,04,26,06,00,9.80
2010,04,26,06,01,9.80
2010,04,26,06,02,9.80
2010,04,26,06,03,9.90
2010,04,26,06,04,9.90
2010,04,26,06,05,9.90
2010,04,26,06,06,9.90
2010,04,26,06,07,9.90
2010,04,26,06,08,9.90
2010,04,26,06,09,10.00
2010,04,26,06,10,10.00
2010,04,26,06,11,9.90
2010,04,26,06,12,9.90
2010,04,26,06,13,9.90
2010,04,26,06,14,9.90
2010,04,26,06,15,9.90
2010,04,26,06,16,9.90
2010,04,26,06,17,10.00
2010,04,26,06,18,10.00
2010,04,26,06,19,10.00
2010,04,26,06,20,10.00
2010,04,26,06,21,10.00
2010,04,26,06,22,10.00
2010,04,26,06,23,10.00
2010,04,26,06,24,10.00
2010,04,26,06,25,10.10
2010,04,26,06,26,10.10
2010,04,26,06,27,10.10
2010,04,26,06,28,10.10
2010,04,26,06,29,10.10
2010,04,26,06,30,10.10
2010,04,26,06,31,10.10
2010,04,26,06,32,10.10
2010,04,26,06,33,10.10
2010,04,26,06,34,10.00
2010,04,26,06,35,10.00
2010,04,26,06,36,10.00
2010,04,26,06,37,9.90
2010,04,26,06,38,9.90
2010,04,26,06,39,9.90
2010,04,26,06,40,9.90
2010,04,26,06,41,9.80
2010,04,26,06,42,9.80
2010,04,26,06,43,9.80
2010,04,26,06,44,9.70
2010,04,26,06,45,9.70
2010,04,26,06,46,9.70
2010,04,26,06,47,9.70
2010,04,26,06,48,9.70
2010,04,26,06,49,9.70
2010,04,26,06,50,9.60
2010,04,26,06,51,9.60
2010,04,26,06,52,9.60
2010,04,26,06,53,9.60
2010,04,26,06,54,9.60
2010,04,26,06,55,9.60
2010,04,26,06,56,9.60
2010,04,26,06,57,9.60
2010,04,26,06,58,9.60
2010,04,26,06,59,9.60
2010,04,26,07,00,9.60
2010,04,26,07,01,9.60
2010,04,26,07,02,9.60
2010,04,26,07,03,9.60
2010,04,26,07,04,9.60
2010,04,26,07,05,9.50
2010,04,26,07,06,9.50
2010,04,26,07,07,9.50
2010,04,26,07,08,9.50
2010,04,26,07,09,9.50
2010,04,26,07,10,9.60
2010,04,26,07,11,9.60
2010,04,26,07,12,9.60
2010,04,26,07,13,9.60
2010,04,26,07,14,9.70
2010,04,26,07,15,9.70
2010,04,26,07,16,9.70
2010,04,26,07,17,9.70
2010,04,26,07,18,9.70
2010,04,26,07,19,9.60
2010,04,26,07,20,9.60
2010,04,26,07,21,9.60
2010,04,26,07,22,9.60
2010,04,26,07,23,9.60
2010,04,26,07,24,9.60
2010,04,26,07,25,9.70
2010,04,26,07,26,9.70
2010,04,26,07,27,9.70
2010,04,26,07,28,9.70
2010,04,26,07,29,9.70
2010,04,26,07,30,9.70
2010,04,26,07,31,9.70
2010,04,26,07,32,9.70
2010,04,26,07,33,9.70
2010,04,26,07,34,9.70
2010,04,26,07,35,9.70
2010,04,26,07,36,9.70
2010,04,26,07,37,9.70
2010,04,26,07,38,9.70
2010,04,26,07,39,9.80
2010,04,26,07,40,9.80
2010,04,26,07,41,9.80
2010,04,26,07,42,9.80
2010,04,26,07,43,9.80
2010,04,26,07,44,9.80
2010,04,26,07,45,9.80
2010,04,26,07,46,9.80
2010,04,26,07,47,9.90
2010,04,26,07,48,9.90
2010,04,26,07,49,9.90
2010,04,26,07,50,9.90
2010,04,26,07,51,9.90
2010,04,26,07,52,9.90
2010,04,26,07,53,10.00
2010,04,26,07,54,10.00
2010,04,26,07,55,10.00
2010,04,26,07,56,10.00
2010,04,26,07,57,10.10
2010,04,26,07,58,10.10
2010,04,26,07,59,10.10
2010,04,26,08,00,10.10
2010,04,26,08,01,10.10
2010,04,26,08,02,10.10
2010,04,26,08,03,10.10
2010,04,26,08,04,10.10
2010,04,26,08,05,10.10
2010,04,26,08,06,10.10
2010,04,26,08,07,10.10
2010,04,26,08,08,10.20
2010,04,26,08,09,10.20
2010,04,26,08,10,10.20
2010,04,26,08,11,10.20
2010,04,26,08,12,10.20
2010,04,26,08,13,10.20
2010,04,26,08,14,10.20
2010,04,26,08,15,10.20
2010,04,26,08,16,10.20
2010,04,26,08,17,10.20
2010,04,26,08,18,10.20
2010,04,26,08,19,10.20
2010,04,26,08,20,10.20
2010,04,26,08,21,10.20
2010,04,26,08,22,10.20
2010,04,26,08,23,10.20
2010,04,26,08,24,10.20
2010,04,26,08,25,10.20
2010,04,26,08,26,10.20
2010,04,26,08,27,10.20
2010,04,26,08,28,10.20
2010,04,26,08,29,10.30
2010,04,26,08,30,10.30
2010,04,26,08,31,10.30
2010,04,26,08,32,10.30
2010,04,26,08,33,10.30
2010,04,26,08,34,10.30
2010,04,26,08,35,10.30
2010,04,26,08,36,10.40
2010,04,26,08,37,10.40
2010,04,26,08,38,10.40
2010,04,26,08,39,10.40
2010,04,26,08,40,10.40
2010,04,26,08,41,10.40
2010,04,26,08,42,10.40
2010,04,26,08,43,10.50
2010,04,26,08,44,10.50
2010,04,26,08,45,10.50
2010,04,26,08,46,10.60
2010,04,26,08,47,10.60
2010,04,26,08,48,10.60
2010,04,26,08,49,10.70
2010,04,26,08,50,10.70
2010,04,26,08,51,10.80
2010,04,26,08,52,10.80
2010,04,26,08,53,10.90
2010,04,26,08,54,10.90
2010,04,26,08,55,11.00
2010,04,26,08,56,11.00
2010,04,26,08,57,11.10
2010,04,26,08,58,11.10
2010,04,26,08,59,11.20
2010,04,26,09,00,11.30
2010,04,26,09,01,11.30
2010,04,26,09,02,11.40
2010,04,26,09,03,11.40
2010,04,26,09,04,11.40
2010,04,26,09,05,11.50
2010,04,26,09,06,11.50
2010,04,26,09,07,11.50
2010,04,26,09,08,11.50
2010,04,26,09,09,11.50
2010,04,26,09,10,11.50
2010,04,26,09,11,11.50
2010,04,26,09,12,11.50
2010,04,26,09,13,11.40
2010,04,26,09,14,11.40
2010,04,26,09,15,11.40
2010,04,26,09,16,11.40
2010,04,26,09,17,11.40
2010,04,26,09,18,11.40
2010,04,26,09,19,11.30
2010,04,26,09,20,11.30
2010,04,26,09,21,11.30
2010,04,26,09,22,11.30
2010,04,26,09,23,11.30
2010,04,26,09,24,11.30
2010,04,26,09,25,11.30
2010,04,26,09,26,11.40
2010,04,26,09,27,11.40
2010,04,26,09,28,11.40
2010,04,26,09,29,11.40
2010,04,26,09,30,11.40
2010,04,26,09,31,11.50
2010,04,26,09,32,11.50
2010,04,26,09,33,11.50
2010,04,26,09,34,11.50
2010,04,26,09,35,11.60
2010,04,26,09,36,11.60
2010,04,26,09,37,11.60
2010,04,26,09,38,11.60
2010,04,26,09,39,11.60
2010,04,26,09,40,11.60
2010,04,26,09,41,11.60
2010,04,26,09,42,11.60
2010,04,26,09,43,11.60
2010,04,26,09,44,11.60
2010,04,26,09,45,11.60
2010,04,26,09,46,11.60
2010,04,26,09,47,11.60
2010,04,26,09,48,11.60
2010,04,26,09,49,11.50
2010,04,26,09,50,11.60
2010,04,26,09,51,11.50
2010,04,26,09,52,11.60
2010,04,26,09,53,11.60
2010,04,26,09,54,11.60
2010,04,26,09,55,11.60
2010,04,26,09,56,11.60
2010,04,26,09,57,11.70
2010,04,26,09,58,11.70
2010,04,26,09,59,11.80
2010,04,26,10,00,11.80
2010,04,26,10,01,11.80
2010,04,26,10,02,11.90
2010,04,26,10,03,11.90
2010,04,26,10,04,11.90
2010,04,26,10,05,12.00
2010,04,26,10,06,12.00
2010,04,26,10,07,12.10
2010,04,26,10,08,12.10
2010,04,26,10,09,12.10
2010,04,26,10,10,12.10
2010,04,26,10,11,12.10
2010,04,26,10,12,12.20
2010,04,26,10,13,12.20
2010,04,26,10,14,12.20
2010,04,26,10,15,12.20
2010,04,26,10,16,12.20
2010,04,26,10,17,12.20
2010,04,26,10,18,12.20
2010,04,26,10,19,12.20
2010,04,26,10,20,12.20
2010,04,26,10,21,12.20
2010,04,26,10,22,12.20
2010,04,26,10,23,12.20
2010,04,26,10,24,12.20
2010,04,26,10,25,12.20
2010,04,26,10,26,12.10
2010,04,26,10,27,12.10
2010,04,26,10,28,12.10
2010,04,26,10,29,12.10
2010,04,26,10,30,12.10
2010,04,26,10,31,12.10
2010,04,26,10,32,12.10
2010,04,26,10,33,12.10
2010,04,26,10,34,12.10
2010,04,26,10,35,12.10
2010,04,26,10,36,12.20
2010,04,26,10,37,12.10
2010,04,26,10,38,12.20
2010,04,26,10,39,12.20
2010,04,26,10,40,12.20
2010,04,26,10,41,12.20
2010,04,26,10,42,12.30
2010,04,26,10,43,12.30
2010,04,26,10,44,12.30
2010,04,26,10,45,12.30
2010,04,26,10,46,12.30
2010,04,26,10,47,12.30
2010,04,26,10,48,12.40
2010,04,26,10,49,12.40
2010,04,26,10,50,12.40
2010,04,26,10,51,12.40
2010,04,26,10,52,12.40
2010,04,26,10,53,12.40
2010,04,26,10,54,12.50
2010,04,26,10,55,12.50
2010,04,26,10,56,12.50
2010,04,26,10,57,12.60
2010,04,26,10,58,12.60
2010,04,26,10,59,12.60
2010,04,26,11,00,12.60
2010,04,26,11,01,12.60
2010,04,26,11,02,12.70
2010,04,26,11,03,12.70
2010,04,26,11,04,12.70
2010,04,26,11,05,12.70
2010,04,26,11,06,12.70
2010,04,26,11,07,12.70
2010,04,26,11,08,12.70
2010,04,26,11,09,12.70
2010,04,26,11,10,12.70
2010,04,26,11,11,12.70
2010,04,26,11,12,12.60
2010,04,26,11,13,12.60
2010,04,26,11,14,12.50
2010,04,26,11,15,12.50
2010,04,26,11,16,12.40
2010,04,26,11,17,12.40
2010,04,26,11,18,12.40
2010,04,26,11,19,12.40
2010,04,26,11,20,12.30
2010,04,26,11,21,12.30
2010,04,26,11,22,12.30
2010,04,26,11,23,12.30
2010,04,26,11,24,12.30
2010,04,26,11,25,12.30
2010,04,26,11,26,12.30
2010,04,26,11,27,12.30
2010,04,26,11,28,12.30
2010,04,26,11,29,12.30
2010,04,26,11,30,12.30
2010,04,26,11,31,12.30
2010,04,26,11,32,12.30
2010,04,26,11,33,12.30
2010,04,26,11,34,12.30
2010,04,26,11,35,12.30
2010,04,26,11,36,12.30
2010,04,26,11,37,12.30
2010,04,26,11,38,12.30
2010,04,26,11,39,12.30
2010,04,26,11,40,12.30
2010,04,26,11,41,12.40
2010,04,26,11,42,12.50
2010,04,26,11,43,12.60
2010,04,26,11,44,12.70
2010,04,26,11,45,12.90
2010,04,26,11,46,13.10
2010,04,26,11,47,13.20
2010,04,26,11,48,13.40
2010,04,26,11,49,13.60
2010,04,26,11,50,13.80
2010,04,26,11,51,13.90
2010,04,26,11,52,14.10
2010,04,26,11,53,14.20
2010,04,26,11,54,14.30
2010,04,26,11,55,14.50
2010,04,26,11,56,14.70
2010,04,26,11,57,14.80
2010,04,26,11,58,14.90
2010,04,26,11,59,15.00
2010,04,26,12,00,15.20
2010,04,26,12,01,15.30
2010,04,26,12,02,15.40
2010,04,26,12,03,15.50
2010,04,26,12,04,15.50
2010,04,26,12,05,15.50
2010,04,26,12,06,15.50
2010,04,26,12,07,15.60
2010,04,26,12,08,15.80
2010,04,26,12,09,15.90
2010,04,26,12,10,15.90
2010,04,26,12,11,15.90
2010,04,26,12,12,15.90
2010,04,26,12,13,15.90
2010,04,26,12,14,15.80
2010,04,26,12,15,15.80
2010,04,26,12,16,15.70
2010,04,26,12,17,15.70
2010,04,26,12,18,15.60
2010,04,26,12,19,15.50
2010,04,26,12,20,15.40
2010,04,26,12,21,15.20
2010,04,26,12,22,15.10
2010,04,26,12,23,15.10
2010,04,26,12,24,15.00
2010,04,26,12,25,14.90
2010,04,26,12,26,14.90
2010,04,26,12,27,14.80
2010,04,26,12,28,14.80
2010,04,26,12,29,14.70
2010,04,26,12,30,14.70
2010,04,26,12,31,14.60
2010,04,26,12,32,14.60
2010,04,26,12,33,14.50
2010,04,26,12,34,14.40
2010,04,26,12,35,14.30
2010,04,26,12,36,14.20
2010,04,26,12,37,14.10
2010,04,26,12,38,14.00
2010,04,26,12,39,13.90
2010,04,26,12,40,13.90
2010,04,26,12,41,13.80
2010,04,26,12,42,13.80
2010,04,26,12,43,13.80
2010,04,26,12,44,13.80
2010,04,26,12,45,13.80
2010,04,26,12,46,13.80
2010,04,26,12,47,13.80
2010,04,26,12,48,13.80
2010,04,26,12,49,13.80
2010,04,26,12,50,13.80
2010,04,26,12,51,13.90
2010,04,26,12,52,13.90
2010,04,26,12,53,13.90
2010,04,26,12,54,14.00
2010,04,26,12,55,14.00
2010,04,26,12,56,14.10
2010,04,26,12,57,14.10
2010,04,26,12,58,14.10
2010,04,26,12,59,14.10
2010,04,26,13,00,14.10
2010,04,26,13,01,14.10
2010,04,26,13,02,14.00
2010,04,26,13,03,14.00
2010,04,26,13,04,13.90
2010,04,26,13,05,13.90
2010,04,26,13,06,13.80
2010,04,26,13,07,13.80
2010,04,26,13,08,13.80
2010,04,26,13,09,13.70
2010,04,26,13,10,13.70
2010,04,26,13,11,13.60
2010,04,26,13,12,13.60
2010,04,26,13,13,13.50
2010,04,26,13,14,13.40
2010,04,26,13,15,13.40
2010,04,26,13,16,13.40
2010,04,26,13,17,13.30
2010,04,26,13,18,13.30
2010,04,26,13,19,13.30
2010,04,26,13,20,13.30
2010,04,26,13,21,13.20
2010,04,26,13,22,13.20
2010,04,26,13,23,13.20
2010,04,26,13,24,13.20
2010,04,26,13,25,13.20
2010,04,26,13,26,13.20
2010,04,26,13,27,13.20
2010,04,26,13,28,13.20
2010,04,26,13,29,13.20
2010,04,26,13,30,13.30
2010,04,26,13,31,13.30
2010,04,26,13,32,13.30
2010,04,26,13,33,13.30
2010,04,26,13,34,13.30
2010,04,26,13,35,13.30
2010,04,26,13,36,13.20
2010,04,26,13,37,13.20
2010,04,26,13,38,13.20
2010,04,26,13,39,13.10
2010,04,26,13,40,13.10
2010,04,26,13,41,13.10
2010,04,26,13,42,13.10
2010,04,26,13,43,13.10
2010,04,26,13,44,13.10
2010,04,26,13,45,13.20
2010,04,26,13,46,13.20
2010,04,26,13,47,13.20
2010,04,26,13,48,13.20
2010,04,26,13,49,13.10
2010,04,26,13,50,13.10
2010,04,26,13,51,13.00
2010,04,26,13,52,12.90
2010,04,26,13,53,12.90
2010,04,26,13,54,12.80
2010,04,26,13,55,12.70
2010,04,26,13,56,12.70
2010,04,26,13,57,12.60
2010,04,26,13,58,12.50
2010,04,26,13,59,12.40
2010,04,26,14,00,12.40
2010,04,26,14,01,12.30
2010,04,26,14,02,12.20
2010,04,26,14,03,12.10
2010,04,26,14,04,12.00
2010,04,26,14,05,11.90
2010,04,26,14,06,11.80
2010,04,26,14,07,11.80
2010,04,26,14,08,11.70
2010,04,26,14,09,11.60
2010,04,26,14,10,11.50
2010,04,26,14,11,11.40
2010,04,26,14,12,11.30
2010,04,26,14,13,11.30
2010,04,26,14,14,11.20
2010,04,26,14,15,11.10
2010,04,26,14,16,11.10
2010,04,26,14,17,11.00
2010,04,26,14,18,10.90
2010,04,26,14,19,10.90
2010,04,26,14,20,10.90
2010,04,26,14,21,10.80
2010,04,26,14,22,10.80
2010,04,26,14,23,10.70
2010,04,26,14,24,10.70
2010,04,26,14,25,10.60
2010,04,26,14,26,10.60
2010,04,26,14,27,10.60
2010,04,26,14,28,10.60
2010,04,26,14,29,10.50
2010,04,26,14,30,10.50
2010,04,26,14,31,10.50
2010,04,26,14,32,10.40
2010,04,26,14,33,10.40
2010,04,26,14,34,10.40
2010,04,26,14,35,10.40
2010,04,26,14,36,10.40
2010,04,26,14,37,10.40
2010,04,26,14,38,10.40
2010,04,26,14,39,10.30
2010,04,26,14,40,10.30
2010,04,26,14,41,10.30
2010,04,26,14,42,10.30
2010,04,26,14,43,10.30
2010,04,26,14,44,10.30
2010,04,26,14,45,10.30
2010,04,26,14,46,10.30
2010,04,26,14,47,10.30
2010,04,26,14,48,10.40
2010,04,26,14,49,10.40
2010,04,26,14,50,10.40
2010,04,26,14,51,10.40
2010,04,26,14,52,10.40
2010,04,26,14,53,10.40
2010,04,26,14,54,10.40
2010,04,26,14,55,10.30
2010,04,26,14,56,10.30
2010,04,26,14,57,10.30
2010,04,26,14,58,10.30
2010,04,26,14,59,10.30
2010,04,26,15,00,10.40
2010,04,26,15,01,10.40
2010,04,26,15,02,10.40
2010,04,26,15,03,10.40
2010,04,26,15,04,10.40
2010,04,26,15,05,10.40
2010,04,26,15,06,10.40
2010,04,26,15,07,10.40
2010,04,26,15,08,10.40
2010,04,26,15,09,10.40
2010,04,26,15,10,10.40
2010,04,26,15,11,10.40
2010,04,26,15,12,10.40
2010,04,26,15,13,10.40
2010,04,26,15,14,10.40
2010,04,26,15,15,10.40
2010,04,26,15,16,10.40
2010,04,26,15,17,10.40
2010,04,26,15,18,10.40
2010,04,26,15,19,10.40
2010,04,26,15,20,10.40
2010,04,26,15,21,10.40
2010,04,26,15,22,10.40
2010,04,26,15,23,10.40
2010,04,26,15,24,10.40
2010,04,26,15,25,10.40
2010,04,26,15,26,10.40
2010,04,26,15,27,10.30
2010,04,26,15,28,10.30
2010,04,26,15,29,10.30
2010,04,26,15,30,10.30
2010,04,26,15,31,10.30
2010,04,26,15,32,10.30
2010,04,26,15,33,10.30
2010,04,26,15,34,10.30
2010,04,26,15,35,10.30
2010,04,26,15,36,10.30
2010,04,26,15,37,10.30
2010,04,26,15,38,10.30
2010,04,26,15,39,10.30
2010,04,26,15,40,10.30
2010,04,26,15,41,10.20
2010,04,26,15,42,10.20
2010,04,26,15,43,10.20
2010,04,26,15,44,10.20
2010,04,26,15,45,10.20
2010,04,26,15,46,10.20
2010,04,26,15,47,10.10
2010,04,26,15,48,10.10
2010,04,26,15,49,10.10
2010,04,26,15,50,10.10
2010,04,26,15,51,10.10
2010,04,26,15,52,10.10
2010,04,26,15,53,10.10
2010,04,26,15,54,10.10
2010,04,26,15,55,10.10
2010,04,26,15,56,10.10
2010,04,26,15,57,10.10
2010,04,26,15,58,10.10
2010,04,26,15,59,10.10
2010,04,26,16,00,10.10
2010,04,26,16,01,10.10
2010,04,26,16,02,10.10
2010,04,26,16,03,10.10
2010,04,26,16,04,10.10
2010,04,26,16,05,10.10
2010,04,26,16,06,10.10
2010,04,26,16,07,10.10
2010,04,26,16,08,10.10
2010,04,26,16,09,10.10
2010,04,26,16,10,10.10
2010,04,26,16,11,10.10
2010,04,26,16,12,10.10
2010,04,26,16,13,10.10
2010,04,26,16,14,10.20
2010,04,26,16,15,10.20
2010,04,26,16,16,10.20
2010,04,26,16,17,10.20
2010,04,26,16,18,10.20
2010,04,26,16,19,10.20
2010,04,26,16,20,10.20
2010,04,26,16,21,10.20
2010,04,26,16,22,10.20
2010,04,26,16,23,10.20
2010,04,26,16,24,10.20
2010,04,26,16,25,10.20
2010,04,26,16,26,10.20
2010,04,26,16,27,10.30
2010,04,26,16,28,10.30
2010,04,26,16,29,10.30
2010,04,26,16,30,10.30
2010,04,26,16,31,10.30
2010,04,26,16,32,10.30
2010,04,26,16,33,10.40
2010,04,26,16,34,10.40
2010,04,26,16,35,10.40
2010,04,26,16,36,10.50
2010,04,26,16,37,10.50
2010,04,26,16,38,10.50
2010,04,26,16,39,10.50
2010,04,26,16,40,10.50
2010,04,26,16,41,10.50
2010,04,26,16,42,10.50
2010,04,26,16,43,10.50
2010,04,26,16,44,10.40
2010,04,26,16,45,10.40
2010,04,26,16,46,10.40
2010,04,26,16,47,10.40
2010,04,26,16,48,10.40
2010,04,26,16,49,10.40
2010,04,26,16,50,10.40
2010,04,26,16,51,10.40
2010,04,26,16,52,10.40
2010,04,26,16,53,10.40
2010,04,26,16,54,10.40
2010,04,26,16,55,10.40
2010,04,26,16,56,10.40
2010,04,26,16,57,10.50
2010,04,26,16,58,10.50
2010,04,26,16,59,10.60
2010,04,26,17,00,10.60
2010,04,26,17,01,10.60
2010,04,26,17,02,10.60
2010,04,26,17,03,10.60
2010,04,26,17,04,10.60
2010,04,26,17,05,10.60
2010,04,26,17,06,10.60
2010,04,26,17,07,10.60
2010,04,26,17,08,10.60
2010,04,26,17,09,10.50
2010,04,26,17,10,10.50
2010,04,26,17,11,10.60
2010,04,26,17,12,10.60
2010,04,26,17,13,10.60
2010,04,26,17,14,10.60
2010,04,26,17,15,10.60
2010,04,26,17,16,10.60
2010,04,26,17,17,10.60
2010,04,26,17,18,10.60
2010,04,26,17,19,10.60
2010,04,26,17,20,10.60
2010,04,26,17,21,10.60
2010,04,26,17,22,10.60
2010,04,26,17,23,10.60
2010,04,26,17,24,10.60
2010,04,26,17,25,10.60
2010,04,26,17,26,10.60
2010,04,26,17,27,10.60
2010,04,26,17,28,10.60
2010,04,26,17,29,10.70
2010,04,26,17,30,10.70
2010,04,26,17,31,10.70
2010,04,26,17,32,10.70
2010,04,26,17,33,10.70
2010,04,26,17,34,10.70
2010,04,26,17,35,10.70
2010,04,26,17,36,10.60
2010,04,26,17,37,10.60
2010,04,26,17,38,10.70
2010,04,26,17,39,10.70
2010,04,26,17,40,10.70
2010,04,26,17,41,10.70
2010,04,26,17,42,10.60
2010,04,26,17,43,10.60
2010,04,26,17,44,10.60
2010,04,26,17,45,10.60
2010,04,26,17,46,10.60
2010,04,26,17,47,10.60
2010,04,26,17,48,10.50
2010,04,26,17,49,10.50
2010,04,26,17,50,10.50
2010,04,26,17,51,10.50
2010,04,26,17,52,10.50
2010,04,26,17,53,10.50
2010,04,26,17,54,10.50
2010,04,26,17,55,10.50
2010,04,26,17,56,10.50
2010,04,26,17,57,10.50
2010,04,26,17,58,10.50
2010,04,26,17,59,10.40
2010,04,26,18,00,10.40
2010,04,26,18,01,10.40
2010,04,26,18,02,10.40
2010,04,26,18,03,10.40
2010,04,26,18,04,10.40
2010,04,26,18,05,10.40
2010,04,26,18,06,10.40
2010,04,26,18,07,10.40
2010,04,26,18,08,10.30
2010,04,26,18,09,10.30
2010,04,26,18,10,10.30
2010,04,26,18,11,10.30
2010,04,26,18,12,10.30
2010,04,26,18,13,10.30
2010,04,26,18,14,10.30
2010,04,26,18,15,10.30
2010,04,26,18,16,10.30
2010,04,26,18,17,10.30
2010,04,26,18,18,10.30
2010,04,26,18,19,10.30
2010,04,26,18,20,10.40
2010,04,26,18,21,10.40
2010,04,26,18,22,10.40
2010,04,26,18,23,10.40
2010,04,26,18,24,10.40
2010,04,26,18,25,10.40
2010,04,26,18,26,10.30
2010,04,26,18,27,10.30
2010,04,26,18,28,10.30
2010,04,26,18,29,10.30
2010,04,26,18,30,10.30
2010,04,26,18,31,10.30
2010,04,26,18,32,10.30
2010,04,26,18,33,10.30
2010,04,26,18,34,10.30
2010,04,26,18,35,10.30
2010,04,26,18,36,10.30
2010,04,26,18,37,10.30
2010,04,26,18,38,10.30
2010,04,26,18,39,10.30
2010,04,26,18,40,10.30
2010,04,26,18,41,10.30
2010,04,26,18,42,10.30
2010,04,26,18,43,10.30
2010,04,26,18,44,10.30
2010,04,26,18,45,10.20
2010,04,26,18,46,10.30
2010,04,26,18,47,10.30
2010,04,26,18,48,10.30
2010,04,26,18,49,10.30
2010,04,26,18,50,10.30
2010,04,26,18,51,10.30
2010,04,26,18,52,10.30
2010,04,26,18,53,10.30
2010,04,26,18,54,10.30
2010,04,26,18,55,10.30
2010,04,26,18,56,10.30
2010,04,26,18,57,10.30
2010,04,26,18,58,10.30
2010,04,26,18,59,10.30
2010,04,26,19,00,10.30
2010,04,26,19,01,10.30
2010,04,26,19,02,10.30
2010,04,26,19,03,10.30
2010,04,26,19,04,10.30
2010,04,26,19,05,10.30
2010,04,26,19,06,10.30
2010,04,26,19,07,10.30
2010,04,26,19,08,10.30
2010,04,26,19,09,10.20
2010,04,26,19,10,10.30
2010,04,26,19,11,10.20
2010,04,26,19,12,10.20
2010,04,26,19,13,10.20
2010,04,26,19,14,10.30
2010,04,26,19,15,10.30
2010,04,26,19,16,10.30
2010,04,26,19,17,10.30
2010,04,26,19,18,10.30
2010,04,26,19,19,10.30
2010,04,26,19,20,10.30
2010,04,26,19,21,10.30
2010,04,26,19,22,10.30
2010,04,26,19,23,10.30
2010,04,26,19,24,10.30
2010,04,26,19,25,10.30
2010,04,26,19,26,10.30
2010,04,26,19,27,10.30
2010,04,26,19,28,10.30
2010,04,26,19,29,10.30
2010,04,26,19,30,10.30
2010,04,26,19,31,10.30
2010,04,26,19,32,10.30
2010,04,26,19,33,10.30
2010,04,26,19,34,10.30
2010,04,26,19,35,10.30
2010,04,26,19,36,10.40
2010,04,26,19,37,10.40
2010,04,26,19,38,10.40
2010,04,26,19,39,10.40
2010,04,26,19,40,10.40
2010,04,26,19,41,10.30
2010,04,26,19,42,10.30
2010,04,26,19,43,10.30
2010,04,26,19,44,10.30
2010,04,26,19,45,10.30
2010,04,26,19,46,10.30
2010,04,26,19,47,10.30
2010,04,26,19,48,10.30
2010,04,26,19,49,10.30
2010,04,26,19,50,10.30
2010,04,26,19,51,10.30
2010,04,26,19,52,10.30
2010,04,26,19,53,10.30
2010,04,26,19,54,10.30
2010,04,26,19,55,10.30
2010,04,26,19,56,10.30
2010,04,26,19,57,10.30
2010,04,26,19,58,10.30
2010,04,26,19,59,10.30
2010,04,26,20,00,10.30
2010,04,26,20,01,10.30
2010,04,26,20,02,10.30
2010,04,26,20,03,10.30
2010,04,26,20,04,10.30
2010,04,26,20,05,10.30
2010,04,26,20,06,10.30
2010,04,26,20,07,10.30
2010,04,26,20,08,10.30
2010,04,26,20,09,10.30
2010,04,26,20,10,10.30
2010,04,26,20,11,10.30
2010,04,26,20,12,10.30
2010,04,26,20,13,10.30
2010,04,26,20,14,10.30
2010,04,26,20,15,10.30
2010,04,26,20,16,10.40
2010,04,26,20,17,10.40
2010,04,26,20,18,10.40
2010,04,26,20,19,10.40
2010,04,26,20,20,10.40
2010,04,26,20,21,10.40
2010,04,26,20,22,10.40
2010,04,26,20,23,10.40
2010,04,26,20,24,10.40
2010,04,26,20,25,10.40
2010,04,26,20,26,10.40
2010,04,26,20,27,10.40
2010,04,26,20,28,10.40
2010,04,26,20,29,10.40
2010,04,26,20,30,10.40
2010,04,26,20,31,10.30
2010,04,26,20,32,10.30
2010,04,26,20,33,10.30
2010,04,26,20,34,10.30
2010,04,26,20,35,10.30
2010,04,26,20,36,10.30
2010,04,26,20,37,10.30
2010,04,26,20,38,10.30
2010,04,26,20,39,10.30
2010,04,26,20,40,10.30
2010,04,26,20,41,10.30
2010,04,26,20,42,10.30
2010,04,26,20,43,10.30
2010,04,26,20,44,10.30
2010,04,26,20,45,10.30